Year,Month,Day,Hour,Minute,Value (Times are PST for temperature in C)
2020,04,16,00,00,6.60
2020,04,16,00,01,6.50
2020,04,16,00,02,6.40
2020,04,16,00,03,6.40
2020,04,16,00,04,6.40
2020,04,16,00,05,6.40
2020,04,16,00,06,6.40
2020,04,16,00,07,6.30
2020,04,16,00,08,6.30
2020,04,16,00,09,6.30
2020,04,16,00,10,6.20
2020,04,16,00,11,6.20
2020,04,16,00,12,6.10
2020,04,16,00,13,6.10
2020,04,16,00,14,6.00
2020,04,16,00,15,6.00
2020,04,16,00,16,6.00
2020,04,16,00,17,6.00
2020,04,16,00,18,6.00
2020,04,16,00,19,6.00
2020,04,16,00,20,6.00
2020,04,16,00,21,5.90
2020,04,16,00,22,5.80
2020,04,16,00,23,5.80
2020,04,16,00,24,5.80
2020,04,16,00,25,5.80
2020,04,16,00,26,5.80
2020,04,16,00,27,5.80
2020,04,16,00,28,5.80
2020,04,16,00,29,5.70
2020,04,16,00,30,5.70
2020,04,16,00,31,5.70
2020,04,16,00,32,5.70
2020,04,16,00,33,5.70
2020,04,16,00,34,5.70
2020,04,16,00,35,5.70
2020,04,16,00,36,5.70
2020,04,16,00,37,5.70
2020,04,16,00,38,5.70
2020,04,16,00,39,5.70
2020,04,16,00,40,5.70
2020,04,16,00,41,5.70
2020,04,16,00,42,5.70
2020,04,16,00,43,5.70
2020,04,16,00,44,5.80
2020,04,16,00,45,5.80
2020,04,16,00,46,5.80
2020,04,16,00,47,5.80
2020,04,16,00,48,5.80
2020,04,16,00,49,5.80
2020,04,16,00,50,5.80
2020,04,16,00,51,5.80
2020,04,16,00,52,5.80
2020,04,16,00,53,5.80
2020,04,16,00,54,5.80
2020,04,16,00,55,5.80
2020,04,16,00,56,5.80
2020,04,16,00,57,5.80
2020,04,16,00,58,5.80
2020,04,16,00,59,5.80
2020,04,16,01,00,5.80
2020,04,16,01,01,5.80
2020,04,16,01,02,5.80
2020,04,16,01,03,5.80
2020,04,16,01,04,5.80
2020,04,16,01,05,5.80
2020,04,16,01,06,5.80
2020,04,16,01,07,5.80
2020,04,16,01,08,5.80
2020,04,16,01,09,5.80
2020,04,16,01,10,5.70
2020,04,16,01,11,5.70
2020,04,16,01,12,5.70
2020,04,16,01,13,5.70
2020,04,16,01,14,5.70
2020,04,16,01,15,5.70
2020,04,16,01,16,5.70
2020,04,16,01,17,5.70
2020,04,16,01,18,5.70
2020,04,16,01,19,5.70
2020,04,16,01,20,5.70
2020,04,16,01,21,5.80
2020,04,16,01,22,5.80
2020,04,16,01,23,5.80
2020,04,16,01,24,5.80
2020,04,16,01,25,5.90
2020,04,16,01,26,5.90
2020,04,16,01,27,5.90
2020,04,16,01,28,5.90
2020,04,16,01,29,5.90
2020,04,16,01,30,5.90
2020,04,16,01,31,5.90
2020,04,16,01,32,6.00
2020,04,16,01,33,6.00
2020,04,16,01,34,6.10
2020,04,16,01,35,6.10
2020,04,16,01,36,6.10
2020,04,16,01,37,6.10
2020,04,16,01,38,6.10
2020,04,16,01,39,6.20
2020,04,16,01,40,6.20
2020,04,16,01,41,6.20
2020,04,16,01,42,6.30
2020,04,16,01,43,6.30
2020,04,16,01,44,6.30
2020,04,16,01,45,6.40
2020,04,16,01,46,6.30
2020,04,16,01,47,6.30
2020,04,16,01,48,6.30
2020,04,16,01,49,6.30
2020,04,16,01,50,6.20
2020,04,16,01,51,6.20
2020,04,16,01,52,6.20
2020,04,16,01,53,6.20
2020,04,16,01,54,6.20
2020,04,16,01,55,6.30
2020,04,16,01,56,6.30
2020,04,16,01,57,6.30
2020,04,16,01,58,6.30
2020,04,16,01,59,6.30
2020,04,16,02,00,6.30
2020,04,16,02,01,6.40
2020,04,16,02,02,6.40
2020,04,16,02,03,6.40
2020,04,16,02,04,6.40
2020,04,16,02,05,6.40
2020,04,16,02,06,6.40
2020,04,16,02,07,6.40
2020,04,16,02,08,6.40
2020,04,16,02,09,6.40
2020,04,16,02,10,6.40
2020,04,16,02,11,6.40
2020,04,16,02,12,6.40
2020,04,16,02,13,6.40
2020,04,16,02,14,6.40
2020,04,16,02,15,6.40
2020,04,16,02,16,6.40
2020,04,16,02,17,6.40
2020,04,16,02,18,6.40
2020,04,16,02,19,6.40
2020,04,16,02,20,6.40
2020,04,16,02,21,6.40
2020,04,16,02,22,6.40
2020,04,16,02,23,6.40
2020,04,16,02,24,6.40
2020,04,16,02,25,6.40
2020,04,16,02,26,6.30
2020,04,16,02,27,6.30
2020,04,16,02,28,6.30
2020,04,16,02,29,6.30
2020,04,16,02,30,6.30
2020,04,16,02,31,6.30
2020,04,16,02,32,6.30
2020,04,16,02,33,6.30
2020,04,16,02,34,6.40
2020,04,16,02,35,6.40
2020,04,16,02,36,6.40
2020,04,16,02,37,6.50
2020,04,16,02,38,6.50
2020,04,16,02,39,6.50
2020,04,16,02,40,6.50
2020,04,16,02,41,6.40
2020,04,16,02,42,6.40
2020,04,16,02,43,6.40
2020,04,16,02,44,6.30
2020,04,16,02,45,6.30
2020,04,16,02,46,6.30
2020,04,16,02,47,6.30
2020,04,16,02,48,6.30
2020,04,16,02,49,6.30
2020,04,16,02,50,6.30
2020,04,16,02,51,6.30
2020,04,16,02,52,6.30
2020,04,16,02,53,6.30
2020,04,16,02,54,6.30
2020,04,16,02,55,6.30
2020,04,16,02,56,6.30
2020,04,16,02,57,6.30
2020,04,16,02,58,6.20
2020,04,16,02,59,6.10
2020,04,16,03,00,6.00
2020,04,16,03,01,5.90
2020,04,16,03,02,5.80
2020,04,16,03,03,5.80
2020,04,16,03,04,5.70
2020,04,16,03,05,5.70
2020,04,16,03,06,5.70
2020,04,16,03,07,5.70
2020,04,16,03,08,5.70
2020,04,16,03,09,5.70
2020,04,16,03,10,5.70
2020,04,16,03,11,5.70
2020,04,16,03,12,5.80
2020,04,16,03,13,5.80
2020,04,16,03,14,5.80
2020,04,16,03,15,5.80
2020,04,16,03,16,5.80
2020,04,16,03,17,5.80
2020,04,16,03,18,5.80
2020,04,16,03,19,5.80
2020,04,16,03,20,5.80
2020,04,16,03,21,5.80
2020,04,16,03,22,5.80
2020,04,16,03,23,5.80
2020,04,16,03,24,5.80
2020,04,16,03,25,5.90
2020,04,16,03,26,5.90
2020,04,16,03,27,5.90
2020,04,16,03,28,5.90
2020,04,16,03,29,5.90
2020,04,16,03,30,6.00
2020,04,16,03,31,6.00
2020,04,16,03,32,6.00
2020,04,16,03,33,6.00
2020,04,16,03,34,6.00
2020,04,16,03,35,6.00
2020,04,16,03,36,6.10
2020,04,16,03,37,6.10
2020,04,16,03,38,6.10
2020,04,16,03,39,6.10
2020,04,16,03,40,6.00
2020,04,16,03,41,6.00
2020,04,16,03,42,6.00
2020,04,16,03,43,6.00
2020,04,16,03,44,6.00
2020,04,16,03,45,6.10
2020,04,16,03,46,6.10
2020,04,16,03,47,6.10
2020,04,16,03,48,6.10
2020,04,16,03,49,6.10
2020,04,16,03,50,6.10
2020,04,16,03,51,6.10
2020,04,16,03,52,6.00
2020,04,16,03,53,5.90
2020,04,16,03,54,5.70
2020,04,16,03,55,5.60
2020,04,16,03,56,5.50
2020,04,16,03,57,5.40
2020,04,16,03,58,5.40
2020,04,16,03,59,5.40
2020,04,16,04,00,5.30
2020,04,16,04,01,5.40
2020,04,16,04,02,5.40
2020,04,16,04,03,5.40
2020,04,16,04,04,5.40
2020,04,16,04,05,5.40
2020,04,16,04,06,5.40
2020,04,16,04,07,5.40
2020,04,16,04,08,5.40
2020,04,16,04,09,5.40
2020,04,16,04,10,5.40
2020,04,16,04,11,5.50
2020,04,16,04,12,5.50
2020,04,16,04,13,5.50
2020,04,16,04,14,5.50
2020,04,16,04,15,5.60
2020,04,16,04,16,5.60
2020,04,16,04,17,5.60
2020,04,16,04,18,5.70
2020,04,16,04,19,5.70
2020,04,16,04,20,5.70
2020,04,16,04,21,5.70
2020,04,16,04,22,5.70
2020,04,16,04,23,5.70
2020,04,16,04,24,5.70
2020,04,16,04,25,5.50
2020,04,16,04,26,5.40
2020,04,16,04,27,5.30
2020,04,16,04,28,5.30
2020,04,16,04,29,5.30
2020,04,16,04,30,5.40
2020,04,16,04,31,5.40
2020,04,16,04,32,5.50
2020,04,16,04,33,5.50
2020,04,16,04,34,5.60
2020,04,16,04,35,5.60
2020,04,16,04,36,5.70
2020,04,16,04,37,5.70
2020,04,16,04,38,5.60
2020,04,16,04,39,5.60
2020,04,16,04,40,5.60
2020,04,16,04,41,5.60
2020,04,16,04,42,5.60
2020,04,16,04,43,5.60
2020,04,16,04,44,5.60
2020,04,16,04,45,5.70
2020,04,16,04,46,5.80
2020,04,16,04,47,5.80
2020,04,16,04,48,5.80
2020,04,16,04,49,5.80
2020,04,16,04,50,5.80
2020,04,16,04,51,5.90
2020,04,16,04,52,5.90
2020,04,16,04,53,5.90
2020,04,16,04,54,5.90
2020,04,16,04,55,5.90
2020,04,16,04,56,5.90
2020,04,16,04,57,5.90
2020,04,16,04,58,5.90
2020,04,16,04,59,5.90
2020,04,16,05,00,5.90
2020,04,16,05,01,5.90
2020,04,16,05,02,5.90
2020,04,16,05,03,5.80
2020,04,16,05,04,5.80
2020,04,16,05,05,5.80
2020,04,16,05,06,5.80
2020,04,16,05,07,5.80
2020,04,16,05,08,5.90
2020,04,16,05,09,5.90
2020,04,16,05,10,5.90
2020,04,16,05,11,5.80
2020,04,16,05,12,5.80
2020,04,16,05,13,5.80
2020,04,16,05,14,5.90
2020,04,16,05,15,5.90
2020,04,16,05,16,5.90
2020,04,16,05,17,5.90
2020,04,16,05,18,5.90
2020,04,16,05,19,5.90
2020,04,16,05,20,5.90
2020,04,16,05,21,5.90
2020,04,16,05,22,5.80
2020,04,16,05,23,5.80
2020,04,16,05,24,5.80
2020,04,16,05,25,5.80
2020,04,16,05,26,5.80
2020,04,16,05,27,5.80
2020,04,16,05,28,5.80
2020,04,16,05,29,5.90
2020,04,16,05,30,5.90
2020,04,16,05,31,5.90
2020,04,16,05,32,6.00
2020,04,16,05,33,6.00
2020,04,16,05,34,5.90
2020,04,16,05,35,5.90
2020,04,16,05,36,5.90
2020,04,16,05,37,5.90
2020,04,16,05,38,5.90
2020,04,16,05,39,5.90
2020,04,16,05,40,5.90
2020,04,16,05,41,5.90
2020,04,16,05,42,6.00
2020,04,16,05,43,6.00
2020,04,16,05,44,6.00
2020,04,16,05,45,6.10
2020,04,16,05,46,6.10
2020,04,16,05,47,6.10
2020,04,16,05,48,6.20
2020,04,16,05,49,6.20
2020,04,16,05,50,6.20
2020,04,16,05,51,6.20
2020,04,16,05,52,6.10
2020,04,16,05,53,6.10
2020,04,16,05,54,6.00
2020,04,16,05,55,6.00
2020,04,16,05,56,6.00
2020,04,16,05,57,6.00
2020,04,16,05,58,6.00
2020,04,16,05,59,6.00
2020,04,16,06,00,6.10
2020,04,16,06,01,6.10
2020,04,16,06,02,6.20
2020,04,16,06,03,6.20
2020,04,16,06,04,6.20
2020,04,16,06,05,6.20
2020,04,16,06,06,6.20
2020,04,16,06,07,6.20
2020,04,16,06,08,6.20
2020,04,16,06,09,6.20
2020,04,16,06,10,6.20
2020,04,16,06,11,6.20
2020,04,16,06,12,6.20
2020,04,16,06,13,6.20
2020,04,16,06,14,6.20
2020,04,16,06,15,6.20
2020,04,16,06,16,6.20
2020,04,16,06,17,6.20
2020,04,16,06,18,6.10
2020,04,16,06,19,6.10
2020,04,16,06,20,6.00
2020,04,16,06,21,6.00
2020,04,16,06,22,5.90
2020,04,16,06,23,5.90
2020,04,16,06,24,6.00
2020,04,16,06,25,6.00
2020,04,16,06,26,6.10
2020,04,16,06,27,6.10
2020,04,16,06,28,6.10
2020,04,16,06,29,6.10
2020,04,16,06,30,6.10
2020,04,16,06,31,6.00
2020,04,16,06,32,6.00
2020,04,16,06,33,6.00
2020,04,16,06,34,6.00
2020,04,16,06,35,6.00
2020,04,16,06,36,6.00
2020,04,16,06,37,6.00
2020,04,16,06,38,6.00
2020,04,16,06,39,6.00
2020,04,16,06,40,6.10
2020,04,16,06,41,6.10
2020,04,16,06,42,6.00
2020,04,16,06,43,6.00
2020,04,16,06,44,5.90
2020,04,16,06,45,5.90
2020,04,16,06,46,5.90
2020,04,16,06,47,5.90
2020,04,16,06,48,5.90
2020,04,16,06,49,5.90
2020,04,16,06,50,5.90
2020,04,16,06,51,5.90
2020,04,16,06,52,6.00
2020,04,16,06,53,6.00
2020,04,16,06,54,6.10
2020,04,16,06,55,6.10
2020,04,16,06,56,6.10
2020,04,16,06,57,6.10
2020,04,16,06,58,6.10
2020,04,16,06,59,6.10
2020,04,16,07,00,6.10
2020,04,16,07,01,6.10
2020,04,16,07,02,6.10
2020,04,16,07,03,6.10
2020,04,16,07,04,6.10
2020,04,16,07,05,6.00
2020,04,16,07,06,6.10
2020,04,16,07,07,6.10
2020,04,16,07,08,6.10
2020,04,16,07,09,6.10
2020,04,16,07,10,6.10
2020,04,16,07,11,6.10
2020,04,16,07,12,6.10
2020,04,16,07,13,6.10
2020,04,16,07,14,6.10
2020,04,16,07,15,6.10
2020,04,16,07,16,6.10
2020,04,16,07,17,6.10
2020,04,16,07,18,6.10
2020,04,16,07,19,6.00
2020,04,16,07,20,6.10
2020,04,16,07,21,6.10
2020,04,16,07,22,6.10
2020,04,16,07,23,6.20
2020,04,16,07,24,6.20
2020,04,16,07,25,6.30
2020,04,16,07,26,6.30
2020,04,16,07,27,6.30
2020,04,16,07,28,6.40
2020,04,16,07,29,6.40
2020,04,16,07,30,6.40
2020,04,16,07,31,6.40
2020,04,16,07,32,6.50
2020,04,16,07,33,6.50
2020,04,16,07,34,6.60
2020,04,16,07,35,6.60
2020,04,16,07,36,6.70
2020,04,16,07,37,6.70
2020,04,16,07,38,6.80
2020,04,16,07,39,6.80
2020,04,16,07,40,6.80
2020,04,16,07,41,6.80
2020,04,16,07,42,6.90
2020,04,16,07,43,6.90
2020,04,16,07,44,7.00
2020,04,16,07,45,7.00
2020,04,16,07,46,7.00
2020,04,16,07,47,7.10
2020,04,16,07,48,7.10
2020,04,16,07,49,7.10
2020,04,16,07,50,7.20
2020,04,16,07,51,7.20
2020,04,16,07,52,7.20
2020,04,16,07,53,7.30
2020,04,16,07,54,7.30
2020,04,16,07,55,7.30
2020,04,16,07,56,7.40
2020,04,16,07,57,7.40
2020,04,16,07,58,7.40
2020,04,16,07,59,7.50
2020,04,16,08,00,7.60
2020,04,16,08,01,7.70
2020,04,16,08,02,7.70
2020,04,16,08,03,7.80
2020,04,16,08,04,7.80
2020,04,16,08,05,7.80
2020,04,16,08,06,7.80
2020,04,16,08,07,7.80
2020,04,16,08,08,7.90
2020,04,16,08,09,7.90
2020,04,16,08,10,8.00
2020,04,16,08,11,8.10
2020,04,16,08,12,8.10
2020,04,16,08,13,8.10
2020,04,16,08,14,8.10
2020,04,16,08,15,8.10
2020,04,16,08,16,8.00
2020,04,16,08,17,7.90
2020,04,16,08,18,7.80
2020,04,16,08,19,7.80
2020,04,16,08,20,7.80
2020,04,16,08,21,7.70
2020,04,16,08,22,7.70
2020,04,16,08,23,7.70
2020,04,16,08,24,7.70
2020,04,16,08,25,7.60
2020,04,16,08,26,7.60
2020,04,16,08,27,7.70
2020,04,16,08,28,7.70
2020,04,16,08,29,7.70
2020,04,16,08,30,7.70
2020,04,16,08,31,7.70
2020,04,16,08,32,7.70
2020,04,16,08,33,7.80
2020,04,16,08,34,7.90
2020,04,16,08,35,7.90
2020,04,16,08,36,8.00
2020,04,16,08,37,8.10
2020,04,16,08,38,8.30
2020,04,16,08,39,8.40
2020,04,16,08,40,8.60
2020,04,16,08,41,8.70
2020,04,16,08,42,8.80
2020,04,16,08,43,8.80
2020,04,16,08,44,8.80
2020,04,16,08,45,8.80
2020,04,16,08,46,8.90
2020,04,16,08,47,8.90
2020,04,16,08,48,9.00
2020,04,16,08,49,9.00
2020,04,16,08,50,9.10
2020,04,16,08,51,9.20
2020,04,16,08,52,9.20
2020,04,16,08,53,9.20
2020,04,16,08,54,9.20
2020,04,16,08,55,9.30
2020,04,16,08,56,9.30
2020,04,16,08,57,9.40
2020,04,16,08,58,9.40
2020,04,16,08,59,9.50
2020,04,16,09,00,9.50
2020,04,16,09,01,9.60
2020,04,16,09,02,9.70
2020,04,16,09,03,9.70
2020,04,16,09,04,9.80
2020,04,16,09,05,9.80
2020,04,16,09,06,9.80
2020,04,16,09,07,9.80
2020,04,16,09,08,9.80
2020,04,16,09,09,9.80
2020,04,16,09,10,9.80
2020,04,16,09,11,9.80
2020,04,16,09,12,9.90
2020,04,16,09,13,9.90
2020,04,16,09,14,9.90
2020,04,16,09,15,9.80
2020,04,16,09,16,9.70
2020,04,16,09,17,9.70
2020,04,16,09,18,9.70
2020,04,16,09,19,9.70
2020,04,16,09,20,9.70
2020,04,16,09,21,9.70
2020,04,16,09,22,9.70
2020,04,16,09,23,9.80
2020,04,16,09,24,9.80
2020,04,16,09,25,9.90
2020,04,16,09,26,10.00
2020,04,16,09,27,10.10
2020,04,16,09,28,10.20
2020,04,16,09,29,10.20
2020,04,16,09,30,10.30
2020,04,16,09,31,10.40
2020,04,16,09,32,10.50
2020,04,16,09,33,10.60
2020,04,16,09,34,10.60
2020,04,16,09,35,10.60
2020,04,16,09,36,10.70
2020,04,16,09,37,10.80
2020,04,16,09,38,10.80
2020,04,16,09,39,10.90
2020,04,16,09,40,11.00
2020,04,16,09,41,11.10
2020,04,16,09,42,11.10
2020,04,16,09,43,11.20
2020,04,16,09,44,11.30
2020,04,16,09,45,11.40
2020,04,16,09,46,11.50
2020,04,16,09,47,11.60
2020,04,16,09,48,11.60
2020,04,16,09,49,11.70
2020,04,16,09,50,11.80
2020,04,16,09,51,11.90
2020,04,16,09,52,12.00
2020,04,16,09,53,12.10
2020,04,16,09,54,12.30
2020,04,16,09,55,12.40
2020,04,16,09,56,12.40
2020,04,16,09,57,12.50
2020,04,16,09,58,12.60
2020,04,16,09,59,12.70
2020,04,16,10,00,12.80
2020,04,16,10,01,12.90
2020,04,16,10,02,13.10
2020,04,16,10,03,13.20
2020,04,16,10,04,13.30
2020,04,16,10,05,13.40
2020,04,16,10,06,13.50
2020,04,16,10,07,13.50
2020,04,16,10,08,13.60
2020,04,16,10,09,13.70
2020,04,16,10,10,13.90
2020,04,16,10,11,14.00
2020,04,16,10,12,14.00
2020,04,16,10,13,14.10
2020,04,16,10,14,14.20
2020,04,16,10,15,14.10
2020,04,16,10,16,14.10
2020,04,16,10,17,14.00
2020,04,16,10,18,13.90
2020,04,16,10,19,13.80
2020,04,16,10,20,13.80
2020,04,16,10,21,13.70
2020,04,16,10,22,13.70
2020,04,16,10,23,13.70
2020,04,16,10,24,13.80
2020,04,16,10,25,13.80
2020,04,16,10,26,13.80
2020,04,16,10,27,13.80
2020,04,16,10,28,13.80
2020,04,16,10,29,13.80
2020,04,16,10,30,13.90
2020,04,16,10,31,13.90
2020,04,16,10,32,13.90
2020,04,16,10,33,14.00
2020,04,16,10,34,14.00
2020,04,16,10,35,14.00
2020,04,16,10,36,14.10
2020,04,16,10,37,14.10
2020,04,16,10,38,14.00
2020,04,16,10,39,14.00
2020,04,16,10,40,14.10
2020,04,16,10,41,14.10
2020,04,16,10,42,14.10
2020,04,16,10,43,14.20
2020,04,16,10,44,14.20
2020,04,16,10,45,14.30
2020,04,16,10,46,14.30
2020,04,16,10,47,14.40
2020,04,16,10,48,14.40
2020,04,16,10,49,14.50
2020,04,16,10,50,14.50
2020,04,16,10,51,14.50
2020,04,16,10,52,14.50
2020,04,16,10,53,14.50
2020,04,16,10,54,14.50
2020,04,16,10,55,14.50
2020,04,16,10,56,14.50
2020,04,16,10,57,14.60
2020,04,16,10,58,14.60
2020,04,16,10,59,14.60
2020,04,16,11,00,14.60
2020,04,16,11,01,14.70
2020,04,16,11,02,14.70
2020,04,16,11,03,14.80
2020,04,16,11,04,14.80
2020,04,16,11,05,14.90
2020,04,16,11,06,15.00
2020,04,16,11,07,15.00
2020,04,16,11,08,15.10
2020,04,16,11,09,15.10
2020,04,16,11,10,15.00
2020,04,16,11,11,14.90
2020,04,16,11,12,14.90
2020,04,16,11,13,14.90
2020,04,16,11,14,14.90
2020,04,16,11,15,15.00
2020,04,16,11,16,15.10
2020,04,16,11,17,15.20
2020,04,16,11,18,15.30
2020,04,16,11,19,15.40
2020,04,16,11,20,15.40
2020,04,16,11,21,15.40
2020,04,16,11,22,15.30
2020,04,16,11,23,15.30
2020,04,16,11,24,15.30
2020,04,16,11,25,15.30
2020,04,16,11,26,15.20
2020,04,16,11,27,15.20
2020,04,16,11,28,15.20
2020,04,16,11,29,15.20
2020,04,16,11,30,15.20
2020,04,16,11,31,15.20
2020,04,16,11,32,15.20
2020,04,16,11,33,15.20
2020,04,16,11,34,15.20
2020,04,16,11,35,15.20
2020,04,16,11,36,15.20
2020,04,16,11,37,15.10
2020,04,16,11,38,14.90
2020,04,16,11,39,14.80
2020,04,16,11,40,14.80
2020,04,16,11,41,14.70
2020,04,16,11,42,14.50
2020,04,16,11,43,14.50
2020,04,16,11,44,14.40
2020,04,16,11,45,14.30
2020,04,16,11,46,14.30
2020,04,16,11,47,14.20
2020,04,16,11,48,14.20
2020,04,16,11,49,14.20
2020,04,16,11,50,14.20
2020,04,16,11,51,14.30
2020,04,16,11,52,14.30
2020,04,16,11,53,14.30
2020,04,16,11,54,14.40
2020,04,16,11,55,14.40
2020,04,16,11,56,14.50
2020,04,16,11,57,14.60
2020,04,16,11,58,14.60
2020,04,16,11,59,14.50
2020,04,16,12,00,14.40
2020,04,16,12,01,14.40
2020,04,16,12,02,14.40
2020,04,16,12,03,14.40
2020,04,16,12,04,14.30
2020,04,16,12,05,14.30
2020,04,16,12,06,14.20
2020,04,16,12,07,14.20
2020,04,16,12,08,14.30
2020,04,16,12,09,14.30
2020,04,16,12,10,14.50
2020,04,16,12,11,14.60
2020,04,16,12,12,14.80
2020,04,16,12,13,14.80
2020,04,16,12,14,14.90
2020,04,16,12,15,15.00
2020,04,16,12,16,14.90
2020,04,16,12,17,14.90
2020,04,16,12,18,14.90
2020,04,16,12,19,14.90
2020,04,16,12,20,14.80
2020,04,16,12,21,14.80
2020,04,16,12,22,14.80
2020,04,16,12,23,14.80
2020,04,16,12,24,14.70
2020,04,16,12,25,14.70
2020,04,16,12,26,14.70
2020,04,16,12,27,14.70
2020,04,16,12,28,14.80
2020,04,16,12,29,14.80
2020,04,16,12,30,14.80
2020,04,16,12,31,14.90
2020,04,16,12,32,14.80
2020,04,16,12,33,14.60
2020,04,16,12,34,14.40
2020,04,16,12,35,14.30
2020,04,16,12,36,14.30
2020,04,16,12,37,14.30
2020,04,16,12,38,14.30
2020,04,16,12,39,14.30
2020,04,16,12,40,14.40
2020,04,16,12,41,14.40
2020,04,16,12,42,14.50
2020,04,16,12,43,14.60
2020,04,16,12,44,14.70
2020,04,16,12,45,14.70
2020,04,16,12,46,14.70
2020,04,16,12,47,14.70
2020,04,16,12,48,14.60
2020,04,16,12,49,14.60
2020,04,16,12,50,14.60
2020,04,16,12,51,14.60
2020,04,16,12,52,14.50
2020,04,16,12,53,14.50
2020,04,16,12,54,14.40
2020,04,16,12,55,14.30
2020,04,16,12,56,14.30
2020,04,16,12,57,14.40
2020,04,16,12,58,14.50
2020,04,16,12,59,14.60
2020,04,16,13,00,14.60
2020,04,16,13,01,14.60
2020,04,16,13,02,14.60
2020,04,16,13,03,14.60
2020,04,16,13,04,14.60
2020,04,16,13,05,14.60
2020,04,16,13,06,14.60
2020,04,16,13,07,14.70
2020,04,16,13,08,14.70
2020,04,16,13,09,14.80
2020,04,16,13,10,14.90
2020,04,16,13,11,15.00
2020,04,16,13,12,15.10
2020,04,16,13,13,15.30
2020,04,16,13,14,15.40
2020,04,16,13,15,15.50
2020,04,16,13,16,15.60
2020,04,16,13,17,15.70
2020,04,16,13,18,15.60
2020,04,16,13,19,15.60
2020,04,16,13,20,15.60
2020,04,16,13,21,15.70
2020,04,16,13,22,15.70
2020,04,16,13,23,15.80
2020,04,16,13,24,15.80
2020,04,16,13,25,15.90
2020,04,16,13,26,15.90
2020,04,16,13,27,15.90
2020,04,16,13,28,15.90
2020,04,16,13,29,15.90
2020,04,16,13,30,16.00
2020,04,16,13,31,16.10
2020,04,16,13,32,16.10
2020,04,16,13,33,16.00
2020,04,16,13,34,15.90
2020,04,16,13,35,15.90
2020,04,16,13,36,15.90
2020,04,16,13,37,15.90
2020,04,16,13,38,15.90
2020,04,16,13,39,15.90
2020,04,16,13,40,15.90
2020,04,16,13,41,15.80
2020,04,16,13,42,15.80
2020,04,16,13,43,15.80
2020,04,16,13,44,15.70
2020,04,16,13,45,15.70
2020,04,16,13,46,15.70
2020,04,16,13,47,15.80
2020,04,16,13,48,15.80
2020,04,16,13,49,15.90
2020,04,16,13,50,15.90
2020,04,16,13,51,16.00
2020,04,16,13,52,16.00
2020,04,16,13,53,16.00
2020,04,16,13,54,15.90
2020,04,16,13,55,15.80
2020,04,16,13,56,15.70
2020,04,16,13,57,15.70
2020,04,16,13,58,15.60
2020,04,16,13,59,15.60
2020,04,16,14,00,15.60
2020,04,16,14,01,15.70
2020,04,16,14,02,15.80
2020,04,16,14,03,16.00
2020,04,16,14,04,16.10
2020,04,16,14,05,16.10
2020,04,16,14,06,16.10
2020,04,16,14,07,16.10
2020,04,16,14,08,16.20
2020,04,16,14,09,16.30
2020,04,16,14,10,16.30
2020,04,16,14,11,16.50
2020,04,16,14,12,16.60
2020,04,16,14,13,16.60
2020,04,16,14,14,16.70
2020,04,16,14,15,16.70
2020,04,16,14,16,16.60
2020,04,16,14,17,16.60
2020,04,16,14,18,16.60
2020,04,16,14,19,16.60
2020,04,16,14,20,16.70
2020,04,16,14,21,16.70
2020,04,16,14,22,16.70
2020,04,16,14,23,16.70
2020,04,16,14,24,16.80
2020,04,16,14,25,16.90
2020,04,16,14,26,16.80
2020,04,16,14,27,16.70
2020,04,16,14,28,16.60
2020,04,16,14,29,16.50
2020,04,16,14,30,16.40
2020,04,16,14,31,16.40
2020,04,16,14,32,16.40
2020,04,16,14,33,16.40
2020,04,16,14,34,16.30
2020,04,16,14,35,16.30
2020,04,16,14,36,16.30
2020,04,16,14,37,16.30
2020,04,16,14,38,16.30
2020,04,16,14,39,16.30
2020,04,16,14,40,16.30
2020,04,16,14,41,16.30
2020,04,16,14,42,16.20
2020,04,16,14,43,16.20
2020,04,16,14,44,16.20
2020,04,16,14,45,16.20
2020,04,16,14,46,16.20
2020,04,16,14,47,16.20
2020,04,16,14,48,16.30
2020,04,16,14,49,16.40
2020,04,16,14,50,16.50
2020,04,16,14,51,16.40
2020,04,16,14,52,16.40
2020,04,16,14,53,16.30
2020,04,16,14,54,16.30
2020,04,16,14,55,16.30
2020,04,16,14,56,16.30
2020,04,16,14,57,16.30
2020,04,16,14,58,16.20
2020,04,16,14,59,16.20
2020,04,16,15,00,16.30
2020,04,16,15,01,16.30
2020,04,16,15,02,16.20
2020,04,16,15,03,16.30
2020,04,16,15,04,16.30
2020,04,16,15,05,16.30
2020,04,16,15,06,16.30
2020,04,16,15,07,16.20
2020,04,16,15,08,16.20
2020,04,16,15,09,16.10
2020,04,16,15,10,16.10
2020,04,16,15,11,16.10
2020,04,16,15,12,16.10
2020,04,16,15,13,16.20
2020,04,16,15,14,16.20
2020,04,16,15,15,16.20
2020,04,16,15,16,16.20
2020,04,16,15,17,16.20
2020,04,16,15,18,16.10
2020,04,16,15,19,16.00
2020,04,16,15,20,16.00
2020,04,16,15,21,15.90
2020,04,16,15,22,15.80
2020,04,16,15,23,15.70
2020,04,16,15,24,15.50
2020,04,16,15,25,15.50
2020,04,16,15,26,15.50
2020,04,16,15,27,15.50
2020,04,16,15,28,15.60
2020,04,16,15,29,15.60
2020,04,16,15,30,15.60
2020,04,16,15,31,15.50
2020,04,16,15,32,15.40
2020,04,16,15,33,15.40
2020,04,16,15,34,15.30
2020,04,16,15,35,15.30
2020,04,16,15,36,15.20
2020,04,16,15,37,15.20
2020,04,16,15,38,15.10
2020,04,16,15,39,15.10
2020,04,16,15,40,15.00
2020,04,16,15,41,15.00
2020,04,16,15,42,15.00
2020,04,16,15,43,15.00
2020,04,16,15,44,15.00
2020,04,16,15,45,15.10
2020,04,16,15,46,15.10
2020,04,16,15,47,15.00
2020,04,16,15,48,14.90
2020,04,16,15,49,14.80
2020,04,16,15,50,14.80
2020,04,16,15,51,14.70
2020,04,16,15,52,14.70
2020,04,16,15,53,14.60
2020,04,16,15,54,14.60
2020,04,16,15,55,14.50
2020,04,16,15,56,14.40
2020,04,16,15,57,14.20
2020,04,16,15,58,14.10
2020,04,16,15,59,13.90
2020,04,16,16,00,13.70
2020,04,16,16,01,13.60
2020,04,16,16,02,13.40
2020,04,16,16,03,13.20
2020,04,16,16,04,13.10
2020,04,16,16,05,13.00
2020,04,16,16,06,12.90
2020,04,16,16,07,12.80
2020,04,16,16,08,12.70
2020,04,16,16,09,12.70
2020,04,16,16,10,12.80
2020,04,16,16,11,12.80
2020,04,16,16,12,12.80
2020,04,16,16,13,12.80
2020,04,16,16,14,12.80
2020,04,16,16,15,12.80
2020,04,16,16,16,12.90
2020,04,16,16,17,12.80
2020,04,16,16,18,12.70
2020,04,16,16,19,12.60
2020,04,16,16,20,12.40
2020,04,16,16,21,12.30
2020,04,16,16,22,12.20
2020,04,16,16,23,12.00
2020,04,16,16,24,12.00
2020,04,16,16,25,12.00
2020,04,16,16,26,11.90
2020,04,16,16,27,12.00
2020,04,16,16,28,12.10
2020,04,16,16,29,12.20
2020,04,16,16,30,12.30
2020,04,16,16,31,12.40
2020,04,16,16,32,12.40
2020,04,16,16,33,12.40
2020,04,16,16,34,12.30
2020,04,16,16,35,12.30
2020,04,16,16,36,12.30
2020,04,16,16,37,12.30
2020,04,16,16,38,12.20
2020,04,16,16,39,12.20
2020,04,16,16,40,12.20
2020,04,16,16,41,12.20
2020,04,16,16,42,12.20
2020,04,16,16,43,12.20
2020,04,16,16,44,12.20
2020,04,16,16,45,12.20
2020,04,16,16,46,12.20
2020,04,16,16,47,12.20
2020,04,16,16,48,12.20
2020,04,16,16,49,12.20
2020,04,16,16,50,12.20
2020,04,16,16,51,12.20
2020,04,16,16,52,12.10
2020,04,16,16,53,12.10
2020,04,16,16,54,12.10
2020,04,16,16,55,12.10
2020,04,16,16,56,12.10
2020,04,16,16,57,12.10
2020,04,16,16,58,12.20
2020,04,16,16,59,12.20
2020,04,16,17,00,12.30
2020,04,16,17,01,12.30
2020,04,16,17,02,12.30
2020,04,16,17,03,12.30
2020,04,16,17,04,12.20
2020,04,16,17,05,12.20
2020,04,16,17,06,12.20
2020,04,16,17,07,12.30
2020,04,16,17,08,12.30
2020,04,16,17,09,12.30
2020,04,16,17,10,12.30
2020,04,16,17,11,12.30
2020,04,16,17,12,12.30
2020,04,16,17,13,12.30
2020,04,16,17,14,12.30
2020,04,16,17,15,12.30
2020,04,16,17,16,12.30
2020,04,16,17,17,12.30
2020,04,16,17,18,12.30
2020,04,16,17,19,12.20
2020,04,16,17,20,12.10
2020,04,16,17,21,11.90
2020,04,16,17,22,11.80
2020,04,16,17,23,11.70
2020,04,16,17,24,11.70
2020,04,16,17,25,11.80
2020,04,16,17,26,11.80
2020,04,16,17,27,11.80
2020,04,16,17,28,11.80
2020,04,16,17,29,11.70
2020,04,16,17,30,11.80
2020,04,16,17,31,11.80
2020,04,16,17,32,11.90
2020,04,16,17,33,11.90
2020,04,16,17,34,12.00
2020,04,16,17,35,12.10
2020,04,16,17,36,12.10
2020,04,16,17,37,12.20
2020,04,16,17,38,12.20
2020,04,16,17,39,12.30
2020,04,16,17,40,12.30
2020,04,16,17,41,12.30
2020,04,16,17,42,12.20
2020,04,16,17,43,12.20
2020,04,16,17,44,12.30